Location: Howell Woods
(35.3600°N, 78.2900°W)
Time: 17:08:25
(UTC-05:00)

ISS - Pass Details

Date: 08 December 2021
Orbit: 413 x 422 km, 51.6° (Epoch: 28 January)

Event Time Altitude Azimuth Distance (km) Brightness Sun altitude
Rises 18:05:59 0° 309° (NW) 2,379 0.5 -13.1°
Reaches altitude 10° 18:08:07 10° 307° (NW) 1,509 -0.5 -13.5°
Maximum altitude 18:11:28 66° 225° (SW) 462 -3.4 -14.1°
Drops below altitude 10° 18:14:48 10° 142° (SE) 1,493 -1.2 -14.8°
Enters shadow 18:15:42 - 141° (SE) 1,857 -0.7 -15.0°
